Location: Battersea Observatory
(44.4318°N, 76.3841°W)
Time: 21:37:21
(UTC-05:00)

Courier 1B Rocket - All Passes

Search period start: 22 January 2022 00:00
Search period end: 01 February 2022 00:00
Orbit: 920 x 1202 km, 28.2° (Epoch: 22 January)

Date Brightness Start Highest point End Pass type
(mag) Time Alt. Az. Time Alt. Az. Time Alt. Az.
22 Jan - 02:57:12 10° SSW 03:01:19 17° S 03:05:19 10° SE visible
22 Jan - 04:49:17 10° SW 04:53:42 19° S 04:57:58 10° SE visible
22 Jan - 06:43:34 10° SW 06:45:55 12° SSW 06:48:14 10° S visible
23 Jan - 01:56:55 10° SSW 02:00:34 15° SSE 02:04:07 10° SE night (unlit)
23 Jan - 03:48:18 10° SW 03:52:58 19° S 03:57:27 10° SE visible
23 Jan - 05:41:41 10° SW 05:45:16 15° SSW 05:48:46 10° SSE visible
24 Jan - 00:57:10 10° S 00:59:48 12° SSE 01:02:22 10° SE night (unlit)
24 Jan - 02:47:27 10° SW 02:52:11 19° S 02:56:44 10° SE visible
24 Jan - 04:40:15 10° SW 04:44:35 18° S 04:48:45 10° SSE visible
25 Jan - 01:46:47 10° SSW 01:51:24 18° S 01:55:49 10° SE night (unlit)
25 Jan - 03:39:01 10° SW 03:43:50 20° S 03:48:26 10° SE visible
25 Jan - 05:33:21 10° SW 05:36:05 13° SSW 05:38:46 10° S visible
26 Jan - 00:46:23 10° SSW 00:50:34 16° SSE 00:54:38 10° SE night (unlit)
26 Jan - 02:37:57 10° SW 02:43:02 21° S 02:47:54 10° SE visible
26 Jan - 04:31:26 10° SW 04:35:25 16° SSW 04:39:15 10° SSE visible
26 Jan - 23:46:28 10° S 23:49:45 13° SSE 23:52:58 10° SE night (unlit)
27 Jan - 01:37:02 10° SW 01:42:13 20° S 01:47:10 10° SE night (unlit)
27 Jan - 03:29:56 10° SW 03:34:40 19° S 03:39:12 10° SSE visible
27 Jan - 22:48:21 10° SSE 22:48:56 10° SSE 22:49:31 10° SSE night (unlit)
28 Jan - 00:36:19 10° SSW 00:41:22 19° S 00:46:13 10° SE night (unlit)
28 Jan - 02:28:40 10° SW 02:33:52 21° S 02:38:51 10° SE night (unlit)
28 Jan - 04:22:58 10° SW 04:26:12 14° SSW 04:29:20 10° S visible
28 Jan - 23:35:53 10° SSW 23:40:29 17° SSE 23:44:59 10° SE night (unlit)
29 Jan - 01:27:33 10° SW 01:33:01 22° S 01:38:16 10° SE night (unlit)
29 Jan - 03:21:03 10° SW 03:25:28 17° SSW 03:29:42 10° SSE visible
29 Jan - 22:35:55 10° S 22:39:38 14° SSE 22:43:17 10° SE night (unlit)
30 Jan - 00:26:37 10° SW 00:32:08 22° S 00:37:28 10° SE night (unlit)
30 Jan - 02:19:33 10° SW 02:24:40 20° S 02:29:35 10° SE night (unlit)
30 Jan - 04:15:37 10° SW 04:16:55 11° SSW 04:18:13 10° SSW visible
30 Jan - 21:37:10 10° SSE 21:38:48 11° SSE 21:40:25 10° SE night (unlit)
30 Jan - 23:25:55 10° SSW 23:31:14 20° S 23:36:26 10° SE night (unlit)
31 Jan - 01:18:16 10° SW 01:23:49 22° S 01:29:09 10° SE night (unlit)
31 Jan - 03:12:32 10° SW 03:16:13 14° SSW 03:19:48 10° S visible
31 Jan - 22:25:30 10° SSW 22:30:20 18° SSE 22:35:07 10° SE night (unlit)
